Location: Sollberg
(42.7389°N, 93.6369°W)
Time: 10:29:42
(UTC+00:00)

ARIANE 6 FM1 Upper Stage - Visible Passes

Search period start: 05 October 2024 00:00
Search period end: 15 October 2024 00:00
Orbit: 564 x 594 km, 62.0° (Epoch: 04 October)

Date Brightness Start Highest point End Pass type
(mag) Time Alt. Az. Time Alt. Az. Time Alt. Az.
11 Oct 5.5 02:17:32 10° N 02:17:40 10° N 02:17:40 10° N visible
12 Oct 5.5 02:21:22 10° N 02:21:48 12° N 02:21:48 12° N visible
13 Oct 5.5 02:25:20 10° NNW 02:25:56 13° N 02:25:56 13° N visible
14 Oct 5.4 02:29:22 10° NNW 02:30:04 14° NNW 02:30:04 14° NNW visible
